Hourly Weather Kozlyakevichi

Today, 25 October, Sunday

Time Temperature Precipitation Wind Pressure Humidity
00:00 +8°C° 0 mm 3 mps 744 mmHg 94%
01:00 +8°C° 0 mm 3 mps 744 mmHg 94%
02:00 +8°C° 0 mm 3 mps 744 mmHg 95%
03:00 +8°C° 0 mm 3 mps 744 mmHg 95%
04:00 +8°C° 0 mm 2 mps 744 mmHg 96%
05:00 +8°C° 0 mm 2 mps 744 mmHg 97%
06:00 +8°C° 0 mm 2 mps 745 mmHg 97%
07:00 +8°C° 0 mm 2 mps 745 mmHg 97%
08:00 +7°C° 0 mm 2 mps 745 mmHg 97%
09:00 +9°C° 0 mm 2 mps 746 mmHg 92%
10:00 +10°C° 0 mm 2 mps 746 mmHg 87%
11:00 +13°C° 0 mm 2 mps 746 mmHg 82%
12:00 +14°C° 0 mm 2 mps 746 mmHg 79%
13:00 +14°C° 0 mm 2 mps 746 mmHg 75%
14:00 +15°C° 0 mm 2 mps 746 mmHg 72%
15:00 +14°C° 0 mm 2 mps 746 mmHg 77%
16:00 +13°C° 0 mm 1 mps 746 mmHg 82%
17:00 +12°C° 0 mm 1 mps 745 mmHg 87%
18:00 +10°C° 0 mm 2 mps 746 mmHg 89%
19:00 +10°C° 0 mm 2 mps 746 mmHg 90%
20:00 +9°C° 0 mm 2 mps 746 mmHg 92%
21:00 +9°C° 0 mm 2 mps 746 mmHg 93%
22:00 +9°C° 0 mm 2 mps 746 mmHg 94%
23:00 +9°C° 0 mm 3 mps 746 mmHg 94%

Tomorrow, 26 October, Monday

Time Temperature Precipitation Wind Pressure Humidity
00:00 +8°C° 0 mm 3 mps 746 mmHg 94%
01:00 +8°C° 0 mm 3 mps 746 mmHg 94%
02:00 +8°C° 0 mm 3 mps 746 mmHg 93%
03:00 +8°C° 0 mm 3 mps 746 mmHg 92%
04:00 +8°C° 0 mm 3 mps 746 mmHg 91%
05:00 +7°C° 0 mm 4 mps 745 mmHg 90%
06:00 +7°C° 0 mm 4 mps 745 mmHg 89%
07:00 +8°C° 0 mm 4 mps 745 mmHg 88%
08:00 +8°C° 0 mm 4 mps 745 mmHg 87%
09:00 +9°C° 0 mm 5 mps 745 mmHg 84%
10:00 +9°C° 0 mm 5 mps 745 mmHg 82%
11:00 +10°C° 0 mm 6 mps 745 mmHg 80%
12:00 +11°C° 0 mm 6 mps 744 mmHg 78%
13:00 +13°C° 0 mm 6 mps 744 mmHg 75%
14:00 +14°C° 0 mm 6 mps 744 mmHg 72%
15:00 +13°C° 0 mm 6 mps 744 mmHg 75%
16:00 +12°C° 0 mm 5 mps 744 mmHg 78%
17:00 +12°C° 0 mm 5 mps 743 mmHg 81%
18:00 +10°C° 0 mm 5 mps 744 mmHg 83%
19:00 +10°C° 0 mm 5 mps 744 mmHg 84%
20:00 +10°C° 0 mm 5 mps 744 mmHg 86%
21:00 +10°C° 0 mm 5 mps 744 mmHg 87%
22:00 +9°C° 0 mm 5 mps 744 mmHg 89%
23:00 +9°C° 0 mm 5 mps 744 mmHg 90%

Day after tomorrow, 27 October, Tuesday

Time Temperature Precipitation Wind Pressure Humidity
00:00 +9°C° 0 mm 5 mps 744 mmHg 91%
01:00 +9°C° 0 mm 5 mps 744 mmHg 92%
02:00 +9°C° 0 mm 5 mps 744 mmHg 93%
03:00 +8°C° 0 mm 5 mps 744 mmHg 94%
04:00 +8°C° 0 mm 5 mps 744 mmHg 94%
05:00 +8°C° 0 mm 5 mps 744 mmHg 95%
06:00 +8°C° 0 mm 5 mps 744 mmHg 95%
07:00 +8°C° 0 mm 5 mps 744 mmHg 95%
08:00 +8°C° 0 mm 5 mps 744 mmHg 95%
09:00 +10°C° 0 mm 5 mps 744 mmHg 91%
10:00 +12°C° 0 mm 5 mps 744 mmHg 86%
11:00 +13°C° 0 mm 5 mps 744 mmHg 81%
12:00 +14°C° 0 mm 5 mps 744 mmHg 79%
13:00 +15°C° 0 mm 5 mps 744 mmHg 76%
14:00 +15°C° 0 mm 5 mps 744 mmHg 73%
15:00 +15°C° 0 mm 5 mps 744 mmHg 78%
16:00 +14°C° 0 mm 4 mps 744 mmHg 82%
17:00 +13°C° 0 mm 4 mps 744 mmHg 87%
18:00 +12°C° 0 mm 4 mps 745 mmHg 88%
19:00 +12°C° 0 mm 4 mps 745 mmHg 89%
20:00 +11°C° 0 mm 4 mps 745 mmHg 89%
21:00 +11°C° 0 mm 4 mps 745 mmHg 90%
22:00 +11°C° 0 mm 4 mps 745 mmHg 91%
23:00 +10°C° 0 mm 4 mps 745 mmHg 92%

28 October, Wednesday

Time Temperature Precipitation Wind Pressure Humidity
00:00 +10°C° 0 mm 4 mps 745 mmHg 93%
01:00 +10°C° 0 mm 4 mps 745 mmHg 93%
02:00 +10°C° 0 mm 4 mps 744 mmHg 94%
03:00 +8°C° 0 mm 4 mps 744 mmHg 94%
04:00 +8°C° 0 mm 4 mps 744 mmHg 95%
05:00 +8°C° 0 mm 4 mps 744 mmHg 95%
06:00 +8°C° 0 mm 4 mps 744 mmHg 96%
07:00 +8°C° 0 mm 4 mps 745 mmHg 96%
08:00 +9°C° 0 mm 3 mps 745 mmHg 96%
09:00 +10°C° 0 mm 3 mps 745 mmHg 92%
10:00 +12°C° 0 mm 4 mps 745 mmHg 88%
11:00 +13°C° 0 mm 4 mps 745 mmHg 84%
12:00 +13°C° 0 mm 3 mps 745 mmHg 82%
13:00 +14°C° 0 mm 3 mps 745 mmHg 79%
14:00 +16°C° 0 mm 3 mps 745 mmHg 77%
15:00 +14°C° 0 mm 3 mps 745 mmHg 81%
16:00 +14°C° 0 mm 3 mps 745 mmHg 86%
17:00 +14°C° 0 mm 2 mps 745 mmHg 90%
18:00 +13°C° 0 mm 3 mps 745 mmHg 90%
19:00 +13°C° 0 mm 3 mps 746 mmHg 91%
20:00 +12°C° 0 mm 3 mps 746 mmHg 91%
21:00 +12°C° 0 mm 3 mps 746 mmHg 92%
22:00 +12°C° 0 mm 3 mps 746 mmHg 93%
23:00 +11°C° 0 mm 3 mps 746 mmHg 95%

29 October, Thursday

Time Temperature Precipitation Wind Pressure Humidity
00:00 +11°C° 0 mm 3 mps 746 mmHg 95%
01:00 +11°C° 0 mm 3 mps 745 mmHg 95%
02:00 +11°C° 0 mm 3 mps 745 mmHg 95%
03:00 +11°C° 0 mm 3 mps 745 mmHg 94%
04:00 +11°C° 0 mm 3 mps 745 mmHg 93%
05:00 +11°C° 0 mm 3 mps 745 mmHg 92%
06:00 +11°C° 0 mm 3 mps 745 mmHg 91%
07:00 +11°C° 0 mm 3 mps 745 mmHg 90%
08:00 +11°C° 0 mm 3 mps 745 mmHg 89%
09:00 +12°C° 0 mm 3 mps 746 mmHg 87%
10:00 +12°C° 0 mm 4 mps 746 mmHg 84%
11:00 +13°C° 0 mm 4 mps 746 mmHg 82%
12:00 +13°C° 0 mm 4 mps 746 mmHg 80%
13:00 +14°C° 0 mm 3 mps 746 mmHg 78%
14:00 +14°C° 0 mm 3 mps 745 mmHg 77%
15:00 +14°C° 0 mm 3 mps 746 mmHg 80%
16:00 +13°C° 0 mm 3 mps 746 mmHg 83%
17:00 +13°C° 0 mm 2 mps 746 mmHg 87%
18:00 +13°C° 0.1 mm 2 mps 746 mmHg 86%
19:00 +13°C° 0.1 mm 2 mps 746 mmHg 86%
20:00 +12°C° 0.1 mm 2 mps 746 mmHg 86%
21:00 +12°C° 0.2 mm 2 mps 746 mmHg 86%
22:00 +12°C° 0.2 mm 2 mps 746 mmHg 85%
23:00 +12°C° 0.2 mm 2 mps 747 mmHg 85%

30 October, Friday

Time Temperature Precipitation Wind Pressure Humidity
00:00 +12°C° 0.3 mm 2 mps 747 mmHg 86%
01:00 +10°C° 0.3 mm 2 mps 747 mmHg 88%
02:00 +10°C° 0.3 mm 2 mps 747 mmHg 89%
03:00 +9°C° 0 mm 2 mps 747 mmHg 91%
04:00 +8°C° 0 mm 2 mps 747 mmHg 92%
05:00 +8°C° 0 mm 2 mps 747 mmHg 93%
06:00 +8°C° 0 mm 2 mps 748 mmHg 92%
07:00 +7°C° 0 mm 2 mps 748 mmHg 92%
08:00 +7°C° 0 mm 2 mps 748 mmHg 91%
09:00 +9°C° 0 mm 3 mps 748 mmHg 85%
10:00 +10°C° 0 mm 3 mps 748 mmHg 79%
11:00 +11°C° 0 mm 4 mps 748 mmHg 73%
12:00 +12°C° 0 mm 4 mps 748 mmHg 70%
13:00 +12°C° 0 mm 4 mps 748 mmHg 68%
14:00 +12°C° 0 mm 4 mps 748 mmHg 65%
15:00 +12°C° 0 mm 4 mps 748 mmHg 69%
16:00 +11°C° 0 mm 4 mps 748 mmHg 72%
17:00 +11°C° 0 mm 3 mps 748 mmHg 76%
18:00 +10°C° 0 mm 4 mps 748 mmHg 77%
19:00 +10°C° 0 mm 4 mps 748 mmHg 79%
20:00 +10°C° 0 mm 4 mps 748 mmHg 81%
21:00 +10°C° 0 mm 4 mps 748 mmHg 82%
22:00 +10°C° 0 mm 4 mps 748 mmHg 82%
23:00 +10°C° 0 mm 4 mps 748 mmHg 83%
Show more